When you browse on this site, cookies collect data to enhance your experience and personalize the content and advertising you see.
Visit our Privacy Policy to learn more. By continuing to use the site, you agree to this use of cookies and data.
  • In Hungary
  • List of Countries
  • For 7 days
  • Water Temperature
  • Satellite Maps
  • Weather Map
  • News
  • Weather Widgets
  • user-avatar
    Login

    Hourly Weather Arkadia

    Today, 22 January, Tuesday

    Time Temperature Precipitation Wind Pressure Humidity
    00:00 +1°C° 0 mm 0 mps 662 mmHg 93%
    01:00 +2°C° 0 mm 1 mps 662 mmHg 93%
    02:00 +2°C° 0 mm 1 mps 662 mmHg 92%
    03:00 +2°C° 0 mm 1 mps 662 mmHg 91%
    04:00 +3°C° 0 mm 1 mps 662 mmHg 89%
    05:00 +3°C° 0.1 mm 1 mps 662 mmHg 89%
    06:00 +3°C° 0.1 mm 1 mps 661 mmHg 89%
    07:00 +3°C° 0.1 mm 1 mps 661 mmHg 88%
    08:00 +5°C° 0 mm 1 mps 662 mmHg 83%
    09:00 +5°C° 0 mm 2 mps 662 mmHg 78%
    10:00 +7°C° 0 mm 2 mps 663 mmHg 73%
    11:00 +6°C° 0.4 mm 2 mps 662 mmHg 76%
    12:00 +5°C° 0.4 mm 3 mps 661 mmHg 79%
    13:00 +5°C° 0.4 mm 3 mps 661 mmHg 82%
    14:00 +5°C° 0.1 mm 3 mps 660 mmHg 84%
    15:00 +5°C° 0.1 mm 2 mps 660 mmHg 86%
    16:00 +5°C° 0.1 mm 2 mps 659 mmHg 88%
    17:00 +5°C° 0.1 mm 2 mps 659 mmHg 90%
    18:00 +4°C° 0.1 mm 2 mps 659 mmHg 93%
    19:00 +4°C° 0.1 mm 2 mps 659 mmHg 96%
    20:00 +3°C° 0 mm 2 mps 659 mmHg 96%
    21:00 +3°C° 0 mm 2 mps 658 mmHg 97%
    22:00 +3°C° 0 mm 2 mps 658 mmHg 97%
    23:00 +3°C° 0 mm 2 mps 658 mmHg 97%

    Tomorrow, 23 January, Wednesday

    Time Temperature Precipitation Wind Pressure Humidity
    00:00 +3°C° 0 mm 2 mps 658 mmHg 97%
    01:00 +2°C° 0 mm 2 mps 658 mmHg 97%
    02:00 +2°C° 1 mm 2 mps 658 mmHg 97%
    03:00 +3°C° 1 mm 2 mps 657 mmHg 97%
    04:00 +3°C° 1 mm 2 mps 657 mmHg 97%
    05:00 +3°C° 0.6 mm 2 mps 657 mmHg 97%
    06:00 +3°C° 0.6 mm 2 mps 657 mmHg 97%
    07:00 +3°C° 0.6 mm 1 mps 657 mmHg 97%
    08:00 +3°C° 0.3 mm 2 mps 657 mmHg 93%
    09:00 +4°C° 0.3 mm 2 mps 657 mmHg 89%
    10:00 +5°C° 0.3 mm 2 mps 657 mmHg 85%
    11:00 +5°C° 0.2 mm 2 mps 656 mmHg 81%
    12:00 +5°C° 0.2 mm 3 mps 655 mmHg 77%
    13:00 +7°C° 0.2 mm 3 mps 655 mmHg 72%
    14:00 +6°C° 0.1 mm 2 mps 654 mmHg 76%
    15:00 +6°C° 0.1 mm 2 mps 653 mmHg 80%
    16:00 +5°C° 0.1 mm 2 mps 653 mmHg 84%
    17:00 +5°C° 0.1 mm 1 mps 652 mmHg 87%
    18:00 +5°C° 0.1 mm 1 mps 652 mmHg 90%
    19:00 +4°C° 0.1 mm 1 mps 652 mmHg 94%
    20:00 +4°C° 0.1 mm 1 mps 651 mmHg 94%
    21:00 +4°C° 0.1 mm 1 mps 651 mmHg 94%
    22:00 +4°C° 0.1 mm 1 mps 651 mmHg 94%
    23:00 +4°C° 0.1 mm 1 mps 650 mmHg 95%

    Day after tomorrow, 24 January, Thursday

    Time Temperature Precipitation Wind Pressure Humidity
    00:00 +3°C° 0.1 mm 1 mps 649 mmHg 95%
    01:00 +3°C° 0.1 mm 1 mps 648 mmHg 96%
    02:00 +3°C° 0.4 mm 1 mps 648 mmHg 96%
    03:00 +3°C° 0.4 mm 1 mps 647 mmHg 96%
    04:00 +3°C° 0.4 mm 1 mps 647 mmHg 96%
    05:00 +3°C° 0.2 mm 1 mps 647 mmHg 96%
    06:00 +3°C° 0.2 mm 1 mps 647 mmHg 95%
    07:00 +1°C° 0.2 mm 0 mps 647 mmHg 95%
    08:00 +3°C° 0.5 mm 1 mps 647 mmHg 94%
    09:00 +4°C° 0.5 mm 1 mps 648 mmHg 92%
    10:00 +4°C° 0.5 mm 2 mps 649 mmHg 91%
    11:00 +4°C° 0.3 mm 2 mps 649 mmHg 88%
    12:00 +3°C° 0.3 mm 3 mps 649 mmHg 85%
    13:00 +3°C° 0.3 mm 3 mps 649 mmHg 82%
    14:00 +3°C° 0 mm 3 mps 649 mmHg 83%
    15:00 +4°C° 0 mm 2 mps 650 mmHg 83%
    16:00 +3°C° 0 mm 2 mps 650 mmHg 83%
    17:00 +2°C° 0 mm 2 mps 650 mmHg 87%
    18:00 +3°C° 0 mm 1 mps 650 mmHg 90%
    19:00 +2°C° 0 mm 1 mps 650 mmHg 94%
    20:00 +2°C° 0.1 mm 1 mps 651 mmHg 94%
    21:00 +3°C° 0.1 mm 1 mps 651 mmHg 95%
    22:00 +3°C° 0.1 mm 1 mps 652 mmHg 95%
    23:00 +3°C° 1.2 mm 1 mps 651 mmHg 96%

    25 January, Friday

    Time Temperature Precipitation Wind Pressure Humidity
    00:00 +3°C° 1.2 mm 1 mps 651 mmHg 96%
    01:00 +3°C° 1.2 mm 1 mps 651 mmHg 97%
    02:00 +3°C° 2.6 mm 1 mps 651 mmHg 97%
    03:00 +3°C° 2.6 mm 1 mps 650 mmHg 97%
    04:00 +3°C° 2.6 mm 1 mps 650 mmHg 97%
    05:00 +3°C° 2 mm 1 mps 650 mmHg 97%
    06:00 +3°C° 2 mm 1 mps 650 mmHg 97%
    07:00 +3°C° 2 mm 1 mps 650 mmHg 97%
    08:00 +4°C° 0.4 mm 1 mps 650 mmHg 91%
    09:00 +4°C° 0.4 mm 2 mps 650 mmHg 86%
    10:00 +4°C° 0.4 mm 3 mps 651 mmHg 80%
    11:00 +4°C° 0.2 mm 3 mps 650 mmHg 79%
    12:00 +4°C° 0.2 mm 3 mps 650 mmHg 78%
    13:00 +4°C° 0.2 mm 3 mps 650 mmHg 77%
    14:00 +4°C° 0.1 mm 2 mps 649 mmHg 78%
    15:00 +4°C° 0.1 mm 2 mps 649 mmHg 80%
    16:00 +5°C° 0.1 mm 1 mps 649 mmHg 82%
    17:00 +4°C° 0.5 mm 1 mps 648 mmHg 85%
    18:00 +4°C° 0.5 mm 1 mps 648 mmHg 88%
    19:00 +3°C° 0.5 mm 1 mps 648 mmHg 90%
    20:00 +3°C° 0.1 mm 1 mps 648 mmHg 90%
    21:00 +3°C° 0.1 mm 1 mps 648 mmHg 90%
    22:00 +3°C° 0.1 mm 1 mps 648 mmHg 90%
    23:00 +2°C° 0.1 mm 1 mps 648 mmHg 90%

    26 January, Saturday

    Time Temperature Precipitation Wind Pressure Humidity
    00:00 +2°C° 0.1 mm 1 mps 648 mmHg 91%
    01:00 +2°C° 0.1 mm 1 mps 648 mmHg 91%
    02:00 +2°C° 0.3 mm 1 mps 648 mmHg 91%
    03:00 +2°C° 0.3 mm 1 mps 648 mmHg 91%
    04:00 +2°C° 0.3 mm 1 mps 649 mmHg 91%
    05:00 +1°C° 0 mm 1 mps 649 mmHg 91%
    06:00 +1°C° 0 mm 1 mps 650 mmHg 91%
    07:00 0°C° 0 mm 1 mps 650 mmHg 91%
    08:00 +2°C° 0 mm 1 mps 651 mmHg 87%
    09:00 +4°C° 0 mm 1 mps 652 mmHg 82%
    10:00 +5°C° 0 mm 1 mps 653 mmHg 77%
    11:00 +5°C° 0.2 mm 2 mps 654 mmHg 76%
    12:00 +5°C° 0.2 mm 2 mps 654 mmHg 74%
    13:00 +5°C° 0.2 mm 2 mps 654 mmHg 73%
    14:00 +5°C° 0.3 mm 2 mps 654 mmHg 77%
    15:00 +5°C° 0.3 mm 1 mps 654 mmHg 80%
    16:00 +5°C° 0.3 mm 1 mps 654 mmHg 84%
    17:00 +4°C° 0.1 mm 1 mps 654 mmHg 87%
    18:00 +2°C° 0.1 mm 0 mps 654 mmHg 91%
    19:00 +1°C° 0.1 mm 0 mps 654 mmHg 94%
    20:00 +1°C° 0.1 mm 0 mps 655 mmHg 94%
    21:00 0°C° 0.1 mm 0 mps 655 mmHg 94%
    22:00 0°C° 0.1 mm 0 mps 655 mmHg 95%
    23:00 0°C° 0.1 mm 0 mps 655 mmHg 95%

    27 January, Sunday

    Time Temperature Precipitation Wind Pressure Humidity
    00:00 0°C° 0.1 mm 0 mps 655 mmHg 95%
    01:00 0°C° 0.1 mm 0 mps 655 mmHg 94%
    02:00 0°C° 0.1 mm 0 mps 655 mmHg 94%
    03:00 0°C° 0.1 mm 0 mps 655 mmHg 94%
    04:00 +1°C° 0.1 mm 1 mps 655 mmHg 94%
    05:00 -1°C° 0 mm 0 mps 656 mmHg 94%
    06:00 -1°C° 0 mm 0 mps 656 mmHg 94%
    07:00 -1°C° 0 mm 0 mps 656 mmHg 94%
    08:00 +2°C° 0 mm 1 mps 657 mmHg 88%
    09:00 +3°C° 0 mm 1 mps 658 mmHg 83%
    10:00 +5°C° 0 mm 1 mps 659 mmHg 77%
    11:00 +6°C° 0 mm 1 mps 659 mmHg 75%
    12:00 +6°C° 0 mm 1 mps 659 mmHg 72%
    13:00 +6°C° 0 mm 2 mps 659 mmHg 69%
    14:00 +5°C° 0.1 mm 2 mps 659 mmHg 74%
    15:00 +4°C° 0.1 mm 2 mps 659 mmHg 79%
    16:00 +4°C° 0.1 mm 2 mps 658 mmHg 83%
    17:00 +3°C° 0 mm 2 mps 658 mmHg 87%
    18:00 +3°C° 0 mm 1 mps 658 mmHg 91%
    19:00 +1°C° 0 mm 1 mps 658 mmHg 95%
    20:00 +1°C° 0 mm 1 mps 658 mmHg 95%
    21:00 +1°C° 0 mm 1 mps 658 mmHg 96%
    22:00 0°C° 0 mm 1 mps 658 mmHg 96%
    23:00 0°C° 0 mm 1 mps 658 mmHg 94%
    Show more